This demonstration page uses our WeatherBlox Daily Observations layout. Learn more.

Hourly Observations for January 5, 2015

Temp ( °F °C ) Dew Point ( °F °C ) Humidity (%) Winds ( mph kmh ) Pressure ( in mb ) Visibility ( mi km ) Precip ( " mm )
12:15 am 00:15 Mostly Cloudy 7 -14.1 -1 -18.2 71 71 Calm 30.83 1044 10 16.0934 0 0
12:35 am 00:35 Cloudy 8 -13.5 0 -17.8 70 70 Calm 30.83 1044 10 16.0934 0 0
12:55 am 00:55 Partly Cloudy 8 -13.5 -1 -18.4 67 67 SSW 3 6 30.83 1044 10 16.0934 0 0
1:15 am 01:15 Partly Cloudy 7 -13.8 -1 -18.5 68 68 Calm 30.83 1044 10 16.0934 0 0
1:35 am 01:35 Cloudy 8 -13.5 -2 -18.7 65 65 Calm 30.83 1044 10 16.0934 0 0
1:55 am 01:55 Mostly Cloudy 7 -14.1 -1 -18.5 70 70 Calm 30.83 1044 10 16.0934 0 0
2:15 am 02:15 Partly Cloudy 6 -14.2 -2 -19.1 67 67 Calm 30.83 1044 10 16.0934 0 0
2:35 am 02:35 Clear 6 -14.7 -3 -19.2 69 69 Calm 30.83 1044 10 16.0934 0 0
2:55 am 02:55 Clear 6 -14.5 -3 -19.3 67 67 Calm 30.83 1044 10 16.0934 0 0
3:15 am 03:15 Clear 4 -15.3 -3 -19.6 70 70 Calm 30.8 1043 10 16.0934 0 0
3:35 am 03:35 Mostly Cloudy 5 -14.9 -1 -18.6 74 74 Calm 30.8 1043 10 16.0934 0 0
3:55 am 03:55 Cloudy 6 -14.2 -1 -18.3 71 71 Calm 30.8 1043 10 16.0934 0 0
4:15 am 04:15 Cloudy 7 -13.8 -1 -18.3 69 69 Calm 30.77 1042 10 16.0934 0 0
4:35 am 04:35 Cloudy 8 -13.4 -1 -18.1 68 68 SSE 3 6 30.74 1041 10 16.0934 0 0
4:55 am 04:55 Cloudy 9 -13 0 -17.9 67 67 SSE 7 11 30.74 1041 10 16.0934 0 0
5:15 am 05:15 Cloudy 9 -12.8 1 -17.5 68 68 SSE 7 11 30.71 1040 10 16.0934 0 0
5:35 am 05:35 Cloudy 9 -12.7 0 -17.6 67 67 SSE 9 15 30.71 1040 10 16.0934 0 0
5:55 am 05:55 Cloudy 9 -12.7 1 -17.3 69 69 SSE 9 15 30.71 1040 10 16.0934 0 0
6:15 am 06:15 Cloudy 9 -12.6 1 -17.1 69 69 SSE 12 19 30.68 1039 10 16.0934 0 0
6:35 am 06:35 Cloudy 9 -12.6 1 -17 70 70 SSE 9 15 30.68 1039 10 16.0934 0 0
6:55 am 06:55 Mostly Cloudy 9 -13 -1 -18.5 64 64 S 9 15 30.68 1039 10 16.0934 0 0
7:15 am 07:15 Partly Cloudy 8 -13.5 -1 -18.1 69 69 SSE 10 17 30.65 1038 10 16.0934 0 0
7:35 am 07:35 Clear 7 -13.9 -1 -18.6 68 68 SSE 12 19 30.65 1038 10 16.0934 0 0
7:55 am 07:55 Clear 7 -14 -1 -18.5 69 69 SSE 8 13 30.62 1037 10 16.0934 0 0
8:15 am 08:15 Sunny 7 -14.1 -2 -18.7 68 68 SSE 10 17 30.59 1036 10 16.0934 0 0
8:35 am 08:35 Sunny 7 -14.1 -2 -19 67 67 S 12 19 30.59 1036 10 16.0934 0 0
8:55 am 08:55 Sunny 7 -14.1 -2 -19.1 66 66 S 13 20 30.59 1036 10 16.0934 0 0
9:15 am 09:15 Mostly Cloudy 7 -13.9 -2 -19 66 66 SSE 16 26 30.56 1035 10 16.0934 0 0
9:35 am 09:35 Cloudy 8 -13.2 -1 -18.4 65 65 S 13 20 30.56 1035 10 16.0934 0 0
9:55 am 09:55 Mostly Cloudy 9 -12.8 0 -17.9 66 66 S 14 22 30.56 1035 10 16.0934 0 0
10:15 am 10:15 Cloudy 9 -12.7 0 -17.7 67 67 S 13 20 30.53 1034 10 16.0934 0 0
10:35 am 10:35 Cloudy 10 -12.5 0 -17.8 65 65 S 17 28 30.48 1032 10 16.0934 0 0
10:55 am 10:55 Cloudy 10 -12.5 0 -18 64 64 S 15 24 30.48 1032 10 16.0934 0 0
11:15 am 11:15 Cloudy 10 -12 -1 -18.1 61 61 S 14 22 30.45 1031 10 16.0934 0 0
11:35 am 11:35 Cloudy 11 -11.7 0 -17.6 62 62 S 16 26 30.42 1030 10 16.0934 0 0
11:55 am 11:55 Cloudy 12 -11.2 2 -16.7 64 64 S 15 24 30.39 1029 10 16.0934 0 0
12:15 pm 12:15 Cloudy 12 -10.9 3 -16.3 65 65 S 16 26 30.33 1027 10 16.0934 0 0
12:35 pm 12:35 Cloudy 14 -10.2 4 -15.6 65 65 S 16 26 30.33 1027 10 16.0934 0 0
12:55 pm 12:55 Cloudy 14 -10 5 -15.1 67 67 SSW 22 35 30.3 1026 10 16.0934 0 0
1:15 pm 13:15 Cloudy 14 -9.8 6 -14.6 68 68 S 16 26 30.3 1026 10 16.0934 0 0
1:35 pm 13:35 Cloudy 15 -9.5 6 -14.2 69 69 SSW 18 30 30.3 1026 10 16.0934 0 0
1:55 pm 13:55 Cloudy 15 -9.5 7 -14 70 70 S 18 30 30.27 1025 10 16.0934 0 0
2:15 pm 14:15 Cloudy 16 -8.9 8 -13.2 71 71 SSW 17 28 30.27 1025 10 16.0934 0 0
2:35 pm 14:35 Cloudy 18 -8 10 -12 73 73 SSW 16 26 30.24 1024 10 16.0934 0 0
2:55 pm 14:55 Partly Cloudy 19 -7.5 11 -11.6 73 73 SSW 20 31 30.24 1024 10 16.0934 0 0
3:15 pm 15:15 Sunny 19 -7.2 12 -11 75 75 SSW 18 30 30.21 1023 10 16.0934 0 0
3:35 pm 15:35 Sunny 20 -6.9 13 -10.4 76 76 SW 15 24 30.21 1023 10 16.0934 0 0
3:55 pm 15:55 Sunny 20 -6.5 14 -10 76 76 SW 21 33 30.18 1022 7 11.26538 0 0
4:15 pm 16:15 Sunny 20 -6.5 14 -10 76 76 SW 17 28 30.18 1022 10 16.0934 0 0
4:35 pm 16:35 Sunny 20 -6.6 14 -10 77 77 SW 14 22 30.24 1024 10 16.0934 0 0
4:55 pm 16:55 Sunny 20 -6.7 14 -10 78 78 SW 12 19 30.24 1024 10 16.0934 0 0
5:15 pm 17:15 Sunny 20 -6.9 14 -10 79 79 SW 9 15 30.24 1024 10 16.0934 0 0
5:35 pm 17:35 Clear 19 -7 14 -10 79 79 SW 7 11 30.24 1024 10 16.0934 0 0
5:55 pm 17:55 Clear 19 -7 14 -9.9 80 80 SW 6 9 30.27 1025 10 16.0934 0 0
6:15 pm 18:15 Clear 19 -7 14 -10 79 79 WSW 6 9 30.27 1025 10 16.0934 0 0
6:35 pm 18:35 Clear 20 -6.9 15 -9.7 81 81 WSW 8 13 30.27 1025 10 16.0934 0 0
6:55 pm 18:55 Clear 20 -6.8 15 -9.7 80 80 WSW 8 13 30.27 1025 10 16.0934 0 0
7:15 pm 19:15 Clear 20 -6.6 15 -9.6 79 79 WSW 9 15 30.27 1025 10 16.0934 0 0
7:35 pm 19:35 Clear 20 -6.9 14 -10 79 79 WSW 10 17 30.27 1025 10 16.0934 0 0
7:55 pm 19:55 Clear 20 -6.6 14 -9.9 78 78 W 12 19 30.3 1026 10 16.0934 0 0
8:15 pm 20:15 Clear 21 -6.2 14 -10 75 75 W 12 19 30.3 1026 10 16.0934 0 0
8:35 pm 20:35 Clear 20 -6.6 13 -10.3 75 75 W 10 17 30.3 1026 10 16.0934 0 0
8:55 pm 20:55 Clear 20 -6.8 13 -10.5 75 75 W 10 17 30.3 1026 10 16.0934 0 0
9:15 pm 21:15 Clear 20 -6.9 13 -10.5 76 76 W 10 17 30.3 1026 10 16.0934 0 0
9:35 pm 21:35 Clear 20 -6.7 13 -10.4 75 75 WNW 7 11 30.33 1027 10 16.0934 0 0
9:55 pm 21:55 Clear 19 -7.1 13 -10.6 76 76 NW 8 13 30.33 1027 10 16.0934 0 0
10:15 pm 22:15 Clear 20 -6.9 14 -10.2 78 78 NW 8 13 30.36 1028 10 16.0934 0 0
10:35 pm 22:35 Clear 21 -6.3 14 -9.9 76 76 NW 10 17 30.39 1029 10 16.0934 0 0
10:55 pm 22:55 Clear 22 -5.7 16 -9 78 78 N 14 22 30.39 1029 10 16.0934 0 0
11:15 pm 23:15 Clear 26 -3.5 20 -6.7 79 79 N 26 43 30.36 1028 7 11.26538 0 0
11:35 pm 23:35 Clear 24 -4.7 17 -8.4 76 76 N 29 46 30.39 1029 7 11.26538 0 0
11:55 pm 23:55 Clear 22 -5.6 15 -9.6 74 74 N 26 43 30.42 1030 7 11.26538 0 0

Powered by AerisWeather